This is the latest recevied weather packets stored in our database for station/object KQ4UPF. If no packets are shown the sender has not sent any weather packets the latest 10 day(s).
| Time | Temp. | Humidity | Pressure | Rain* | Wind** | Luminosity | Snow |
|---|---|---|---|---|---|---|---|
| 1778025779 | 21.67° C | 67% | 1012 hPa | 0 mm | - | 13 W/m² | - |
| 1778025475 | 21.67° C | 64% | 1012 hPa | 0 mm | - | 12 W/m² | - |
| 1778025173 | 21.67° C | 61% | 1012 hPa | 0 mm | - | 23 W/m² | - |
| 1778024869 | 21.67° C | 60% | 1012.1 hPa | 0 mm | - | 29 W/m² | - |
| 1778024567 | 21.67° C | 63% | 1012.1 hPa | 0 mm | - | 29 W/m² | - |
| 1778024263 | 21.67° C | 67% | 1012.1 hPa | 0 mm | - | 41 W/m² | - |
| 1778023962 | 21.67° C | 66% | 1012.3 hPa | 0 mm | - | 54 W/m² | - |
| 1778023658 | 21.67° C | 70% | 1012.5 hPa | 0 mm | - | 32 W/m² | - |
| 1778023356 | 21.67° C | 66% | 1012.4 hPa | 0 mm | - | 30 W/m² | - |
| 1778023052 | 21.67° C | 69% | 1012.3 hPa | 0 mm | - | 40 W/m² | - |
| 1778022752 | 21.67° C | 69% | 1012.5 hPa | 0 mm | - | 45 W/m² | - |
| 1778022449 | 21.67° C | 64% | 1012.5 hPa | 0 mm | - | 48 W/m² | - |
| 1778022146 | 21.67° C | 65% | 1012.8 hPa | 0 mm | - | 33 W/m² | - |
| 1778021842 | 21.67° C | 67% | 1012.8 hPa | 0 mm | - | 33 W/m² | - |
| 1778021539 | 22.22° C | 67% | 1012.8 hPa | 0 mm | - | 35 W/m² | - |
| 1778021234 | 22.22° C | 64% | 1012.7 hPa | 0 mm | - | 39 W/m² | - |
| 1778020932 | 22.22° C | 62% | 1012.9 hPa | 0 mm | - | 38 W/m² | - |
| 1778020630 | 22.78° C | 64% | 1012.9 hPa | 0 mm | - | 38 W/m² | - |
| 1778020326 | 22.78° C | 62% | 1012.4 hPa | 0 mm | - | 48 W/m² | - |
| 1778020022 | 23.33° C | 62% | 1012.8 hPa | 0 mm | - | 60 W/m² | - |
| 1778019718 | 23.89° C | 61% | 1012.8 hPa | 0 mm | - | 70 W/m² | - |
| 1778019416 | 23.89° C | 57% | 1012.7 hPa | 0 mm | - | 99 W/m² | - |
| 1778019112 | 23.89° C | 58% | 1012.8 hPa | 0 mm | - | 139 W/m² | - |
| 1778018809 | 23.89° C | 57% | 1012.6 hPa | 0 mm | - | 186 W/m² | - |
| 1778018507 | 23.89° C | 56% | 1012.6 hPa | 0 mm | - | 224 W/m² | - |
* Rain latest hour (hover to see other rain measurements)
** Current wind speed in m/s (hover to see current wind gust speed)